| time (UTC) | temp F | wind direction | speed MPH | gust MPH | rain 1hr in | rain 24hr in | rain mn in | humidity % | barometer mb |
| 20260505051551 | 58 | 284 | 4.0 | 7.0 | 0.00 | 0.00 | 0.00 | 80 | 1011.7 |
| 20260505041551 | 62 | 257 | 1.0 | 5.0 | 0.00 | 0.00 | 0.00 | 74 | 1010.9 |
| 20260505040051 | 63 | 250 | 2.0 | 7.0 | 0.00 | 0.00 | 0.00 | 73 | 1010.8 |
| 20260505034550 | 64 | 240 | 4.0 | 10.0 | 0.00 | 0.00 | 0.00 | 71 | 1010.6 |
| 20260505033048 | 65 | 219 | 4.0 | 11.0 | 0.00 | 0.00 | 0.00 | 69 | 1010.3 |
| 20260505031551 | 66 | 235 | 6.0 | 11.0 | 0.00 | 0.00 | 0.00 | 67 | 1010.0 |
| 20260505030049 | 67 | 239 | 7.0 | 13.0 | 0.00 | 0.00 | 0.00 | 64 | 1009.9 |
| 20260505024551 | 69 | 230 | 6.0 | 11.0 | 0.00 | 0.00 | 0.00 | 61 | 1009.8 |
| 20260505023056 | 70 | 255 | 6.0 | 12.0 | 0.00 | 0.00 | 0.00 | 59 | 1009.8 |
| 20260505021549 | 72 | 230 | 5.0 | 10.0 | 0.00 | 0.00 | 0.00 | 57 | 1009.8 |
| 20260505020056 | 73 | 239 | 7.0 | 11.0 | 0.00 | 0.00 | 0.00 | 56 | 1009.6 |
| 20260505014554 | 75 | 293 | 5.0 | 11.0 | 0.00 | 0.00 | 0.00 | 55 | 1009.7 |
| 20260505013051 | 75 | 293 | 4.0 | 9.0 | 0.00 | 0.00 | 0.00 | 53 | 1009.8 |
| 20260505011554 | 75 | 226 | 4.0 | 11.0 | 0.00 | 0.00 | 0.00 | 52 | 1009.8 |
| 20260505010051 | 76 | 256 | 4.0 | 11.0 | 0.00 | 0.00 | 0.00 | 51 | 1009.8 |
| 20260505004552 | 76 | 297 | 6.0 | 11.0 | 0.00 | 0.00 | 0.00 | 48 | 1009.8 |
| 20260505003050 | 76 | 270 | 5.0 | 10.0 | 0.00 | 0.00 | 0.00 | 49 | 1009.8 |
| 20260505001549 | 76 | 295 | 5.0 | 11.0 | 0.00 | 0.00 | 0.00 | 48 | 1009.9 |
| 20260505000050 | 76 | 272 | 6.0 | 9.0 | 0.00 | 0.00 | 0.00 | 42 | 1009.9 |
| 20260504234548 | 76 | 298 | 6.0 | 11.0 | 0.00 | 0.00 | 0.00 | 41 | 1009.8 |
| 20260504233053 | 77 | 315 | 2.0 | 9.0 | 0.00 | 0.00 | 0.00 | 45 | 1009.9 |
| 20260504231548 | 77 | 283 | 4.0 | 11.0 | 0.00 | 0.00 | 0.00 | 44 | 1009.9 |
| 20260504230049 | 77 | 221 | 4.0 | 10.0 | 0.00 | 0.00 | 0.00 | 39 | 1010.0 |
| 20260504224552 | 77 | 219 | 4.0 | 11.0 | 0.00 | 0.00 | 0.00 | 41 | 1010.3 |
| 20260504223049 | 77 | 233 | 5.0 | 8.0 | 0.00 | 0.00 | 0.00 | 42 | 1010.3 |
| 20260504221554 | 75 | 282 | 4.0 | 10.0 | 0.00 | 0.00 | 0.00 | 44 | 1010.5 |
| 20260504220109 | 75 | 304 | 4.0 | 9.0 | 0.00 | 0.00 | 0.00 | 45 | 1010.6 |
| 20260504214554 | 75 | 238 | 4.0 | 10.0 | 0.00 | 0.00 | 0.00 | 47 | 1010.7 |
| 20260504213059 | 75 | 244 | 5.0 | 9.0 | 0.00 | 0.00 | 0.00 | 47 | 1010.7 |
| 20260504211549 | 75 | 286 | 3.0 | 9.0 | 0.00 | 0.00 | 0.00 | 50 | 1010.8 |
| 20260504210052 | 74 | 280 | 4.0 | 8.0 | 0.00 | 0.00 | 0.00 | 49 | 1010.8 |
| 20260504204549 | 73 | 302 | 5.0 | 9.0 | 0.00 | 0.00 | 0.00 | 52 | 1010.8 |
| 20260504203045 | 74 | 276 | 4.0 | 9.0 | 0.00 | 0.00 | 0.00 | 50 | 1010.8 |
| 20260504201546 | 74 | 262 | 4.0 | 8.0 | 0.00 | 0.00 | 0.00 | 50 | 1010.7 |
| 20260504200055 | 73 | 349 | 4.0 | 8.0 | 0.00 | 0.00 | 0.00 | 51 | 1010.8 |
| 20260504194550 | 74 | 289 | 4.0 | 8.0 | 0.00 | 0.00 | 0.00 | 51 | 1010.9 |
| 20260504193050 | 73 | 223 | 2.0 | 8.0 | 0.00 | 0.00 | 0.00 | 52 | 1010.8 |
| 20260504191556 | 72 | 240 | 5.0 | 8.0 | 0.00 | 0.00 | 0.00 | 52 | 1010.8 |
| 20260504190107 | 72 | 283 | 5.0 | 8.0 | 0.00 | 0.00 | 0.00 | 56 | 1010.9 |
| 20260504184610 | 73 | 276 | 3.0 | 7.0 | 0.00 | 0.00 | 0.00 | 54 | 1011.0 |
| 20260504183107 | 72 | 238 | 4.0 | 6.0 | 0.00 | 0.00 | 0.00 | 56 | 1011.1 |
| 20260504181551 | 72 | 274 | 1.0 | 5.0 | 0.00 | 0.00 | 0.00 | 54 | 1011.1 |
| 20260504180059 | 71 | 264 | 3.0 | 5.0 | 0.00 | 0.00 | 0.00 | 57 | 1010.9 |
| 20260504174600 | 69 | 239 | 3.0 | 7.0 | 0.00 | 0.00 | 0.00 | 58 | 1011.7 |
| 20260504173055 | 70 | 284 | 2.0 | 5.0 | 0.00 | 0.00 | 0.00 | 58 | 1011.6 |
| 20260504171551 | 69 | 231 | 2.0 | 5.0 | 0.00 | 0.00 | 0.00 | 59 | 1011.5 |
| 20260504081549 | 60 | 112 | 0.0 | 2.0 | 0.00 | 0.00 | 0.00 | 74 | 1009.6 |